Location: St. Andrews
(45.0670°N, 67.0330°W)
Time: 21:34:13
(UTC-03:00)

Amateur Radio Satellites - All Passes

Search period start: 24 July 2014 21:04
Search period end: 25 July 2014 21:04
Location: St. Andrews, 45.0670°N, 67.0330°W

Satellite Date Start Highest point End Downlink Frequencies (MHz)
Time Altitude Azimuth
JAS-2 24 Jul 21:05:55 21:09:33 14° 276° (W) 21:13:08 435.800 - 435.900 CW/SSB, 435.910 FM
UKube-1 24 Jul 21:34:50 21:39:07 59° 72° (ENE) 21:43:27 145.840 MHz, 145.915 MHz
RS-15 24 Jul 21:35:26 21:45:16 35° 27° (NNE) 21:55:16 29.354 - 29.394 USB, Beacon 29.352 USB
STRAND 1 24 Jul 21:42:30 21:46:27 23° 298° (WNW) 21:50:22 ?
SO-50 24 Jul 21:51:01 21:54:59 26° 40° (NE) 21:58:59 436.795 FM
HO-68 24 Jul 22:00:08 22:07:15 65° 257° (WSW) 22:14:24 435.675 MHz FM
Oscar 11 24 Jul 22:25:18 22:29:37 86° 257° (WSW) 22:33:57 145.825 FM, Beacon 2401.500 USB
FUNcube-1 24 Jul 22:33:36 22:37:45 44° 71° (ENE) 22:41:49 145.950 - 145.970 MHz USB
UOSAT-12 24 Jul 22:39:31 22:41:14 12° 25° (NNE) 22:42:56 437.025 FM, 437.400 FM
MaSat-1 24 Jul 23:00:26 23:04:17 53° 112° (ESE) 23:08:50 437.345 MHz
UKube-1 24 Jul 23:13:17 23:15:43 15° 269° (W) 23:18:09 145.840 MHz, 145.915 MHz
SO-50 24 Jul 23:31:12 23:35:52 56° 239° (WSW) 23:40:34 436.795 FM
RS-15 24 Jul 23:48:15 23:59:20 86° 55° (NE) 00:10:47 29.354 - 29.394 USB, Beacon 29.352 USB
HO-68 24 Jul 23:54:34 23:56:19 11° 276° (W) 23:58:03 435.675 MHz FM
FUNcube-1 25 Jul 00:11:16 00:14:21 19° 267° (W) 00:17:25 145.950 - 145.970 MHz USB
UOSAT-12 25 Jul 00:18:07 00:22:39 42° 47° (NE) 00:27:07 437.025 FM, 437.400 FM
Lituanica SAT-1 25 Jul 00:34:49 00:36:41 28° 143° (SE) 00:38:34 437.275 MHz beacon
MaSat-1 25 Jul 00:38:46 00:42:05 21° 315° (NW) 00:45:45 437.345 MHz
ISS 25 Jul 01:35:07 01:37:49 23° 137° (SE) 01:40:33 145.800 FM
AO-40 25 Jul 01:43:21 05:34:17 27° 142° (SE) 07:04:09 Beacon 2401.320
UOSAT-12 25 Jul 01:58:35 02:02:39 29° 245° (WSW) 02:06:39 437.025 FM, 437.400 FM
RS-15 25 Jul 02:01:45 02:10:25 28° 257° (WSW) 02:19:21 29.354 - 29.394 USB, Beacon 29.352 USB
Sapphire 25 Jul 02:05:17 02:10:10 36° 112° (ESE) 02:15:04 437.095 MHz 1200 baud AX-25 AFSK
Lituanica SAT-1 25 Jul 02:07:30 02:09:21 26° 341° (NNW) 02:11:12 437.275 MHz beacon
Oscar 19 25 Jul 02:36:17 02:41:05 38° 97° (E) 02:45:51 437.125 CW, 437.150 USB
PCSat 25 Jul 02:38:33 02:43:56 72° 118° (ESE) 02:49:21 145.825 MHz
Oscar 16 25 Jul 03:03:39 03:08:48 69° 102° (ESE) 03:13:57 437.025 USB, Beacon 2401.1428
JAS-1B 25 Jul 03:08:21 03:16:43 33° 89° (E) 03:24:09 435.800 - 435.900 CW/SSB
ISS 25 Jul 03:11:00 03:14:19 60° 335° (NNW) 03:17:40 145.800 FM
TMSAT-1 25 Jul 03:11:07 03:12:41 11° 86° (E) 03:14:15 436.925 FM
ITAMSAT 1 25 Jul 03:15:11 03:20:03 40° 98° (E) 03:24:53 435.822 SSB
OPAL 25 Jul 03:26:58 03:31:04 27° 62° (ENE) 03:35:10 ?
AO-Echo 25 Jul 03:28:29 03:33:34 55° 100° (E) 03:38:27 ?
Gurwin Techsat 1B 25 Jul 03:30:21 03:34:38 24° 93° (E) 03:38:53 435.225 FM
AO-27 25 Jul 03:33:01 03:38:10 58° 101° (E) 03:43:16 436.795 MHz FM
Uribyol 2 25 Jul 03:35:40 03:40:49 64° 102° (ESE) 03:45:55 436.500 FM
Lituanica SAT-1 25 Jul 03:41:16 03:42:29 14° 360° (N) 03:43:43 437.275 MHz beacon
Sapphire 25 Jul 03:48:29 03:53:32 39° 311° (NW) 03:58:38 437.095 MHz 1200 baud AX-25 AFSK
AO-7 25 Jul 04:06:47 04:10:10 13° 85° (E) 04:13:33 29.400 - 29.500 MHz
Oscar 19 25 Jul 04:15:51 04:20:19 31° 295° (WNW) 04:24:47 437.125 CW, 437.150 USB
PCSat 25 Jul 04:23:35 04:27:54 24° 319° (NW) 04:32:14 145.825 MHz
Oscar 16 25 Jul 04:44:13 04:47:37 18° 300° (WNW) 04:51:01 437.025 USB, Beacon 2401.1428
TMSAT-1 25 Jul 04:48:04 04:53:24 85° 104° (ESE) 04:58:42 436.925 FM
ISS 25 Jul 04:48:35 04:51:30 26° 354° (N) 04:54:25 145.800 FM
ITAMSAT 1 25 Jul 04:54:58 04:59:24 29° 296° (WNW) 05:03:48 435.822 SSB
JAS-1B 25 Jul 04:58:15 05:07:54 69° 291° (WNW) 05:16:22 435.800 - 435.900 CW/SSB
OPAL 25 Jul 05:05:06 05:09:46 41° 259° (W) 05:14:28 ?
AO-Echo 25 Jul 05:08:04 05:11:54 21° 299° (WNW) 05:15:39 ?
Gurwin Techsat 1B 25 Jul 05:09:44 05:14:51 48° 291° (WNW) 05:19:55 435.225 FM
AO-27 25 Jul 05:13:27 05:17:16 21° 299° (WNW) 05:21:03 436.795 MHz FM
Lituanica SAT-1 25 Jul 05:13:47 05:15:37 25° 19° (NNE) 05:17:27 437.275 MHz beacon
Uribyol 2 25 Jul 05:16:13 05:19:48 19° 300° (WNW) 05:23:23 436.500 FM
Uosat F 25 Jul 05:21:34 05:26:20 41° 98° (E) 05:31:03 435.120 FM
Sapphire 25 Jul 05:37:02 05:38:34 11° 334° (NNW) 05:40:07 437.095 MHz 1200 baud AX-25 AFSK
STRAND 1 25 Jul 05:44:31 05:47:08 14° 57° (ENE) 05:49:45 ?
AO-7 25 Jul 05:56:13 06:04:33 67° 105° (ESE) 06:12:47 29.400 - 29.500 MHz
ISS 25 Jul 06:25:45 06:28:51 33° 15° (NNE) 06:31:57 145.800 FM
JAS-2 25 Jul 06:26:19 06:29:39 15° 84° (E) 06:32:49 435.800 - 435.900 CW/SSB, 435.910 FM
TMSAT-1 25 Jul 06:29:36 06:32:37 16° 303° (WNW) 06:35:38 436.925 FM
Lituanica SAT-1 25 Jul 06:46:22 06:48:16 29° 217° (SW) 06:50:09 437.275 MHz beacon
JAS-1B 25 Jul 06:50:04 06:56:33 21° 314° (NW) 07:02:40 435.800 - 435.900 CW/SSB
Uosat F 25 Jul 07:00:45 07:04:56 27° 296° (WNW) 07:09:06 435.120 FM
MaSat-1 25 Jul 07:16:42 07:21:23 30° 50° (NE) 07:25:59 437.345 MHz
KITSAT 1 25 Jul 07:19:44 07:27:13 44° 111° (ESE) 07:34:44 435.175 FM
STRAND 1 25 Jul 07:20:26 07:25:35 90° 75° (ENE) 07:30:46 ?
Hamsat 25 Jul 07:25:43 07:29:59 64° 101° (E) 07:34:16 145.90 MHz
SO-67 25 Jul 07:43:07 07:44:57 14° 91° (E) 07:46:46 435.3500 MHz FM
AO-7 25 Jul 07:49:40 07:56:48 33° 305° (NW) 08:03:54 29.400 - 29.500 MHz
ISS 25 Jul 08:02:25 08:05:46 65° 214° (SSW) 08:09:05 145.800 FM
JAS-2 25 Jul 08:09:26 08:15:47 83° 286° (WNW) 08:21:22 435.800 - 435.900 CW/SSB, 435.910 FM
Oscar 10/S400 25 Jul 08:11:08 09:13:48 20° 255° (WSW) 11:20:17 145.825 - 145.975 CW/USB, Beacon 145.810 USB
Saudisat 1A 25 Jul 08:21:25 08:23:27 13° 109° (ESE) 08:25:30 436.775 MHz
MaSat-1 25 Jul 08:53:52 08:58:59 48° 249° (WSW) 09:03:55 437.345 MHz
Hamsat 25 Jul 09:03:10 09:05:28 14° 298° (WNW) 09:07:47 145.90 MHz
STRAND 1 25 Jul 09:03:37 09:05:29 12° 273° (W) 09:07:21 ?
Sapphire 25 Jul 09:08:55 09:11:11 13° 29° (NNE) 09:13:27 437.095 MHz 1200 baud AX-25 AFSK
KITSAT 1 25 Jul 09:14:39 09:22:31 52° 313° (NW) 09:30:25 435.175 FM
SO-67 25 Jul 09:14:57 09:18:13 38° 288° (WNW) 09:21:28 435.3500 MHz FM
HO-68 25 Jul 09:26:31 09:31:54 22° 91° (E) 09:37:14 435.675 MHz FM
PCSat 25 Jul 09:41:59 09:45:50 19° 37° (NE) 09:49:41 145.825 MHz
JAS-2 25 Jul 09:56:15 09:59:43 15° 308° (NW) 10:02:59 435.800 - 435.900 CW/SSB, 435.910 FM
Saudisat 1A 25 Jul 09:58:00 10:02:26 78° 307° (NW) 10:06:53 436.775 MHz
Oscar 11 25 Jul 10:12:17 10:14:49 15° 90° (E) 10:17:20 145.825 FM, Beacon 2401.500 USB
Sapphire 25 Jul 10:50:47 10:56:02 46° 51° (NE) 11:01:14 437.095 MHz 1200 baud AX-25 AFSK
UKube-1 25 Jul 10:57:12 11:01:35 83° 104° (ESE) 11:05:56 145.840 MHz, 145.915 MHz
HO-68 25 Jul 11:13:08 11:20:17 75° 290° (WNW) 11:27:23 435.675 MHz FM
KITSAT 1 25 Jul 11:14:16 11:20:03 21° 339° (NNW) 11:25:50 435.175 FM
PCSat 25 Jul 11:24:36 11:30:04 86° 59° (ENE) 11:35:30 145.825 MHz
Saudisat 1A 25 Jul 11:40:03 11:42:45 16° 327° (NNW) 11:45:28 436.775 MHz
Oscar 11 25 Jul 11:47:06 11:51:21 55° 287° (WNW) 11:55:34 145.825 FM, Beacon 2401.500 USB
FUNcube-1 25 Jul 11:56:49 12:00:59 72° 102° (ESE) 12:05:09 145.950 - 145.970 MHz USB
JAS-1B 25 Jul 12:12:28 12:14:07 11° 33° (NNE) 12:15:47 435.800 - 435.900 CW/SSB
Oscar 19 25 Jul 12:21:14 12:21:47 10° 54° (NE) 12:22:20 437.125 CW, 437.150 USB
Sapphire 25 Jul 12:34:36 12:39:15 30° 250° (WSW) 12:43:52 437.095 MHz 1200 baud AX-25 AFSK
UKube-1 25 Jul 12:35:31 12:37:09 12° 302° (WNW) 12:38:46 145.840 MHz, 145.915 MHz
Oscar 16 25 Jul 12:45:39 12:49:02 18° 60° (ENE) 12:52:24 437.025 USB, Beacon 2401.1428
ITAMSAT 1 25 Jul 12:59:52 13:01:40 12° 55° (NE) 13:03:28 435.822 SSB
HO-68 25 Jul 13:02:30 13:06:51 18° 310° (NW) 13:11:11 435.675 MHz FM
AO-Echo 25 Jul 13:07:27 13:10:09 14° 57° (ENE) 13:12:51 ?
PCSat 25 Jul 13:09:53 13:12:43 15° 257° (WSW) 13:15:33 145.825 MHz
KITSAT 1 25 Jul 13:14:06 13:19:06 17° 10° (N) 13:24:06 435.175 FM
AO-27 25 Jul 13:16:18 13:19:31 17° 58° (ENE) 13:22:45 436.795 MHz FM
Uribyol 2 25 Jul 13:18:29 13:21:53 18° 59° (ENE) 13:25:17 436.500 FM
FUNcube-1 25 Jul 13:35:10 13:36:51 12° 300° (WNW) 13:38:32 145.950 - 145.970 MHz USB
SO-50 25 Jul 13:48:32 13:52:22 29° 115° (ESE) 13:56:17 436.795 FM
JAS-1B 25 Jul 13:53:46 14:01:35 35° 56° (ENE) 14:10:04 435.800 - 435.900 CW/SSB
Oscar 19 25 Jul 13:55:06 14:00:09 66° 72° (ENE) 14:05:15 437.125 CW, 437.150 USB
RS-15 25 Jul 14:14:25 14:24:39 45° 110° (ESE) 14:34:41 29.354 - 29.394 USB, Beacon 29.352 USB
Oscar 16 25 Jul 14:22:46 14:27:51 69° 258° (WSW) 14:32:59 437.025 USB, Beacon 2401.1428
TMSAT-1 25 Jul 14:32:36 14:36:43 24° 62° (ENE) 14:40:52 436.925 FM
ITAMSAT 1 25 Jul 14:35:03 14:40:15 74° 73° (ENE) 14:45:29 435.822 SSB
AO-Echo 25 Jul 14:42:49 14:48:06 86° 75° (ENE) 14:53:28 ?
AO-27 25 Jul 14:53:11 14:58:25 77° 256° (WSW) 15:03:40 436.795 MHz FM
Gurwin Techsat 1B 25 Jul 14:53:12 14:58:15 46° 69° (ENE) 15:03:18 435.225 FM
Uribyol 2 25 Jul 14:55:37 15:00:48 71° 257° (WSW) 15:06:01 436.500 FM
Uosat F 25 Jul 15:02:33 15:03:48 11° 54° (NE) 15:05:02 435.120 FM
AO-7 25 Jul 15:06:54 15:13:31 27° 51° (NE) 15:20:08 29.400 - 29.500 MHz
KITSAT 1 25 Jul 15:10:07 15:17:24 35° 38° (NE) 15:24:37 435.175 FM
SO-50 25 Jul 15:28:35 15:32:48 39° 314° (NW) 15:37:07 436.795 FM
Oscar 19 25 Jul 15:36:47 15:39:59 17° 270° (W) 15:43:12 437.125 CW, 437.150 USB
JAS-1B 25 Jul 15:42:37 15:51:16 71° 258° (WSW) 16:01:07 435.800 - 435.900 CW/SSB
UOSAT-12 25 Jul 16:10:50 16:15:19 54° 120° (ESE) 16:19:54 437.025 FM, 437.400 FM
TMSAT-1 25 Jul 16:11:08 16:16:18 53° 260° (W) 16:21:30 436.925 FM
ITAMSAT 1 25 Jul 16:17:18 16:20:18 15° 271° (W) 16:23:20 435.822 SSB
AO-Echo 25 Jul 16:25:02 16:27:33 13° 273° (W) 16:30:05 ?
RS-15 25 Jul 16:25:44 16:36:39 61° 314° (NW) 16:47:30 29.354 - 29.394 USB, Beacon 29.352 USB
Gurwin Techsat 1B 25 Jul 16:34:03 16:38:25 26° 267° (W) 16:42:48 435.225 FM
Uosat F 25 Jul 16:36:39 16:41:40 71° 73° (ENE) 16:46:43 435.120 FM
JAS-2 25 Jul 16:41:13 16:44:54 14° 51° (NE) 16:48:28 435.800 - 435.900 CW/SSB, 435.910 FM
Saudisat 1A 25 Jul 16:43:59 16:47:35 24° 40° (NE) 16:51:10 436.775 MHz
AO-7 25 Jul 16:57:04 17:05:27 82° 252° (WSW) 17:13:53 29.400 - 29.500 MHz
KITSAT 1 25 Jul 17:05:27 17:13:31 74° 241° (WSW) 17:21:31 435.175 FM
OPAL 25 Jul 17:12:29 17:17:15 41° 101° (E) 17:22:04 ?
SO-50 25 Jul 17:13:39 17:14:41 11° 337° (NNW) 17:15:43 436.795 FM
JAS-1B 25 Jul 17:38:24 17:43:38 17° 281° (W) 17:49:13 435.800 - 435.900 CW/SSB
UOSAT-12 25 Jul 17:51:52 17:55:46 26° 320° (NW) 17:59:44 437.025 FM, 437.400 FM
Uosat F 25 Jul 18:18:05 18:20:59 15° 270° (W) 18:23:54 435.120 FM
JAS-2 25 Jul 18:20:57 18:28:35 59° 70° (ENE) 18:35:49 435.800 - 435.900 CW/SSB, 435.910 FM
Hamsat 25 Jul 18:20:59 18:25:04 57° 73° (ENE) 18:29:12 145.90 MHz
Saudisat 1A 25 Jul 18:23:09 18:27:28 54° 239° (WSW) 18:31:45 436.775 MHz
Oscar 10/S400 25 Jul 18:40:50 18:46:23 11° 137° (SE) 18:52:09 145.825 - 145.975 CW/USB, Beacon 145.810 USB
RS-15 25 Jul 18:42:36 18:51:47 29° 345° (NNW) 19:01:01 29.354 - 29.394 USB, Beacon 29.352 USB
OPAL 25 Jul 18:51:43 18:55:58 28° 298° (WNW) 19:00:16 ?
AO-7 25 Jul 18:54:12 18:59:27 18° 272° (W) 19:04:44 29.400 - 29.500 MHz
KITSAT 1 25 Jul 19:03:17 19:07:30 15° 261° (W) 19:11:43 435.175 FM
STRAND 1 25 Jul 19:29:38 19:33:54 26° 94° (E) 19:38:07 ?
SO-67 25 Jul 19:49:34 19:53:02 90° 70° (ENE) 19:56:32 435.3500 MHz FM
HO-68 25 Jul 19:58:01 20:03:23 23° 54° (NE) 20:08:44 435.675 MHz FM
Hamsat 25 Jul 19:59:19 20:01:26 14° 271° (W) 20:03:33 145.90 MHz
JAS-2 25 Jul 20:06:58 20:13:51 33° 267° (W) 20:20:29 435.800 - 435.900 CW/SSB, 435.910 FM
UKube-1 25 Jul 20:21:52 20:23:18 11° 58° (ENE) 20:24:44 145.840 MHz, 145.915 MHz
SO-50 25 Jul 20:38:21 20:40:28 13° 27° (NNE) 20:42:36 436.795 FM
